Location: Haute Escalles
(50.9130°N, 1.7244°E)
Time: 10:29:10
(UTC+00:00)

Daily predictions for brighter satellites

Satellite Brightness Start Highest point End
(mag) Time Altitude Azimuth Time Altitude Azimuth Time Altitude Azimuth
ERS-1 Rocket 3.3 20:09:33 10° S 20:14:33 70° WSW 20:19:35 10° NNW
Tsikada Rocket 4.0 20:11:34 10° N 20:17:45 72° ENE 20:23:53 10° SSE
Cosmos 2360 Rocket 3.2 20:18:45 10° NNW 20:23:58 36° NE 20:29:09 10° ESE
Cosmos 2016 Rocket 4.0 20:18:28 10° S 20:24:43 86° E 20:30:56 10° N
Cosmos 1461 3.7 20:22:58 10° S 20:25:59 24° ESE 20:29:00 10° ENE
CZ-4B R/B 3.6 20:22:01 10° S 20:27:39 69° WSW 20:33:16 10° NNW
CZ-4C R/B 2.7 20:25:05 10° WSW 20:29:26 55° NW 20:35:06 10° NE
CZ-4B R/B 4.2 20:25:50 10° SE 20:30:10 36° ENE 20:34:36 10° N
Cosmos 1992 Rocket 4.1 20:25:48 10° S 20:30:51 55° ESE 20:35:57 10° NNE
YAOGAN 11 4.4 20:29:35 10° NNE 20:33:55 50° E 20:38:15 10° S
ISS -3.7 20:32:46 10° W 20:36:07 85° N 20:39:28 10° E
Cosmos 2219 Rocket 3.5 20:32:17 10° NNW 20:37:18 31° NE 20:42:17 10° ESE
Cosmos 1437 Rocket 3.4 20:36:46 10° SSE 20:39:58 32° E 20:43:12 10° NNE
SL-08 R/B 3.4 20:39:24 10° NNE 20:44:16 90° S 20:49:00 10° SSW
DEBRIS 3.2 20:43:05 10° WSW 20:46:01 69° SSE 20:54:32 10° E
Cosmos 1626 Rocket 3.5 20:42:12 10° N 20:46:35 80° E 20:50:58 10° SSE
Cosmos 1743 4.5 20:44:42 10° NW 20:47:06 22° W 20:49:30 10° SW
Cosmos 2098 Rocket 4.2 20:44:22 12° SE 20:47:56 27° E 20:51:29 10° NNE
NOSS 3-3 (A) 3.7 20:43:44 10° SW 20:48:57 80° SE 20:55:17 10° NE
Terra 3.2 20:47:56 10° SSW 20:52:15 36° W 20:56:36 10° NNW
Cosmos 2151 2.9 20:50:28 10° N 20:54:35 71° ENE 20:58:09 13° SSE
Cosmos 2322 Rocket 2.5 20:50:25 10° NNW 20:56:01 57° NE 21:00:46 14° SE
Helios 1A Rocket 4.3 20:53:19 10° N 20:56:09 30° WNW 20:58:56 10° SW
Cosmos 1486 Rocket 4.3 20:51:04 10° NNW 20:56:16 58° ENE 21:00:35 15° SE
Cosmos 1607 4.4 20:52:02 10° SW 20:58:10 68° NW 21:04:29 10° NE
IRS-1C Rocket 4.3 20:53:40 13° SSE 20:58:16 60° ENE 21:03:29 10° N
Cosmos 909 Rocket 4.0 20:53:06 10° SW 20:59:23 85° SE 21:05:59 10° NE
Cosmos 2061 Rocket 4.1 20:53:34 10° S 20:59:48 84° W 21:06:10 10° N
Cosmos 2082 Rocket 2.7 20:55:24 10° SW 21:01:05 66° WNW 21:06:48 10° NNE
USA 306 2.7 20:59:40 10° W 21:02:34 42° NNW 21:04:29 10° ENE
CZ-4B R/B 2.4 21:09:42 17° SSE 21:12:10 87° WSW 21:15:40 10° NNW
USA 186 3.0 21:11:06 10° SSW 21:13:33 29° W 21:16:02 10° NNW
Okean O Rocket 2.7 21:11:51 10° SSW 21:15:53 39° W 21:19:57 10° NNW
Cosmos 1805 2.8 21:17:20 10° N 21:20:36 68° ENE 21:22:21 25° SSE
NOSS 3-3 (C) 3.9 21:15:33 10° SW 21:20:53 81° NW 21:27:24 10° NE
Cosmos 2278 3.8 21:16:21 10° NNW 21:22:04 76° WSW 21:26:23 18° SSE
Meteor 1-5 Rocket 4.3 21:19:12 10° N 21:24:58 75° ENE 21:29:22 19° SSE
COSMOS 2428 4.3 21:20:14 10° NNW 21:25:02 27° NE 21:29:48 10° E
SL-16 R/B 2.6 21:20:59 10° NW 21:26:32 57° WSW 21:30:55 16° S
Cosmos 1544 Rocket 3.9 21:23:18 10° SSW 21:27:36 63° WNW 21:31:54 10° N
Okean 1-7 Rocket 3.6 21:23:14 10° N 21:27:43 69° ENE 21:30:35 22° SSE
CZ-2C R/B 1.8 21:27:14 31° SSE 21:28:23 80° ENE 21:31:10 10° NNW
NOSS 3 (A) 4.4 21:28:45 10° NW 21:30:59 54° SW 21:31:48 35° S
NOSS 3-4 (A) 3.9 21:26:16 10° NW 21:32:53 78° SW 21:38:39 20° SSE
NOSS 3-4 (C) 3.9 21:26:53 10° NW 21:33:33 78° SW 21:39:17 20° SSE
Cosmos-2242 4.2 21:34:03 20° ESE 21:35:23 24° E 21:38:43 10° NE
Okean-O 4.4 21:33:14 10° SSW 21:36:57 27° W 21:40:40 10° NW
Cosmos 2034 Rocket 4.4 21:32:54 19° SSE 21:37:15 49° E 21:43:19 10° NNE
Cosmos 1933 3.8 21:37:04 10° SSW 21:40:48 54° WNW 21:44:33 10° N
Ariane Rocket 3.3 21:38:06 17° S 21:41:54 64° WSW 21:46:58 10° NNW
COSMOS 2406 3.7 21:36:31 10° SW 21:42:14 65° WNW 21:47:57 10° NNE
SPOT 3 Rocket 4.3 21:41:43 14° S 21:45:57 47° W 21:50:55 10° NNW
Nadezhda 4 Rocket 4.0 21:45:44 10° N 21:51:53 82° W 21:56:13 21° S
Cosmos 2333 Rocket 3.1 21:49:08 10° NW 21:54:26 40° WSW 21:58:17 17° S
Helios 1B rocket 3.2 21:55:11 24° ESE 21:56:24 31° ENE 21:59:32 10° N
Cosmos 1763 Rocket 3.6 21:53:12 21° S 21:56:35 58° ESE 22:01:46 10° NNE
Cosmos 1825 Rocket 3.6 21:52:33 10° NNW 21:56:54 74° W 21:59:17 26° S
Cosmos 1470 4.3 21:55:03 10° NNE 21:57:21 17° ENE 21:58:12 16° E
Okean 1 2.9 21:56:18 32° S 21:57:50 80° E 22:01:27 10° NNE
Cosmos 1536 3.5 21:54:35 10° N 21:58:01 36° ENE 21:59:12 28° ESE
Cosmos 1707 3.0 21:59:51 31° E 21:59:51 31° E 22:02:17 10° NNE
Cosmos 2221 4.4 21:59:07 14° E 21:59:56 15° E 22:02:16 10° NE
Cosmos 1833 4.2 21:57:58 19° S 22:02:00 60° ESE 22:07:33 10° NE
Cosmos 1461 3.7 21:58:29 10° WSW 22:02:04 45° NW 22:05:37 10° NNE
Cosmos 1953 Rocket 3.5 21:58:38 10° N 22:03:01 77° E 22:04:56 32° SSE
Cosmos 44 3.6 21:58:22 10° NW 22:03:49 74° NE 22:06:56 25° SE
Cosmos 990 Rocket 3.9 21:58:58 10° NNW 22:04:10 87° WSW 22:06:54 29° SSE
Cosmos 2360 Rocket 2.7 22:02:41 10° NW 22:08:11 52° WSW 22:11:23 24° S
Cosmos 2195 Rocket 4.5 22:03:51 10° N 22:10:07 87° W 22:13:53 25° S
Cosmos 2322 4.3 22:04:37 10° NNW 22:10:11 50° NE 22:13:47 21° ESE
ISS -3.8 22:09:38 10° W 22:13:00 87° NNE 22:14:19 34° E
USA 290 2.4 22:12:10 29° SW 22:13:33 66° WNW 22:16:42 10° NNE
BREEZE-M DEB (TANK) 2.6 22:11:58 10° W 22:13:12 26° WSW 22:13:12 26° WSW
Cosmos 2026 Rocket 4.0 22:08:05 10° N 22:14:31 87° E 22:18:17 27° S
Cosmos 2058 Rocket 3.3 22:14:25 35° SSE 22:15:54 52° E 22:20:07 10° NNE
CZ-4C R/B 4.5 22:14:35 10° WNW 22:18:54 26° N 22:24:16 10° NE
Helios 1A 2.8 22:17:26 10° NNE 22:21:21 64° ESE 22:22:30 41° SSE
Cosmos 2219 Rocket 2.4 22:16:02 10° NW 22:21:39 64° WSW 22:24:29 29° S
Cosmos 1975 3.9 22:21:16 10° N 22:24:30 28° ENE 22:25:24 25° E
Cosmos 2098 Rocket 4.3 22:20:59 11° SW 22:25:09 37° WNW 22:29:00 10° N
KORONAS-FOTON 3.8 22:25:06 45° ESE 22:25:23 46° E 22:28:39 10° NNE
Cosmos 1076 Rocket 4.1 22:22:04 10° NNW 22:26:11 50° W 22:28:03 28° SSW
Cosmos 841 Rocket 4.5 22:28:15 27° SE 22:29:28 30° E 22:33:58 10° NE
USA 306 4.1 22:27:56 10° WNW 22:28:32 14° NW 22:28:32 14° NW
RESURS DK-1 2.8 22:27:13 10° NNW 22:31:07 51° NE 22:32:35 32° ESE
ARIANE 5 R/B 3.2 22:32:16 31° ESE 22:34:00 47° ENE 22:38:18 10° N
ALOS 2 3.4 22:33:58 28° ESE 22:35:41 41° ENE 22:39:49 10° N
Cosmos 2322 Rocket 3.5 22:34:55 10° NW 22:39:44 29° WSW 22:42:34 19° SSW
Cosmos 1766 3.4 22:42:17 10° NNW 22:45:22 45° W 22:45:46 42° WSW
Cosmos 372 Rocket 3.9 22:40:45 10° NNW 22:45:53 85° WSW 22:47:53 38° SSE
Cosmos 1271 Rocket 2.6 22:46:13 50° ESE 22:46:17 50° E 22:49:35 10° NNE
Cosmos 1842 2.7 22:47:39 63° E 22:47:39 63° E 22:50:44 10° NNE
Meteor 2-9 Rocket 4.2 22:48:12 10° N 22:53:37 73° ENE 22:55:56 36° SSE
Spot 4 3.9 22:51:57 38° SSE 22:53:43 72° ENE 22:58:31 10° N
PSLV R/B 4.4 22:51:17 10° NNE 22:55:15 36° E 22:55:59 33° ESE
Cosmos 540 Rocket 4.0 22:52:54 17° SW 22:56:51 56° WNW 23:01:56 10° NNE
Cosmos 2237 Rocket 3.0 22:53:09 10° NNW 22:58:37 46° NE 23:02:17 20° ESE
Aureole 1 Rocket 4.3 22:54:03 10° NNW 22:59:41 57° WSW 23:02:46 31° S
BREEZE-M DEB (TANK) 4.3 22:43:14 10° SW 23:00:42 68° SSE 23:04:50 10° ENE
Cosmos 1092 Rocket 4.4 22:55:54 10° NNW 23:01:52 53° W 23:05:07 27° SSW
CZ-2C R/B 3.8 22:58:57 19° ESE 23:01:54 34° ENE 23:06:31 10° N
Cosmos 1980 4.3 22:57:18 10° NNW 23:02:50 52° NE 23:06:13 23° ESE
ARGOS Delta rocket 4.2 22:59:36 10° NNE 23:04:42 58° E 23:06:31 38° SSE
Cosmos 1937 Rocket 3.4 23:02:19 10° NNW 23:07:30 83° ENE 23:09:26 39° SSE
COSMOS 2428 2.7 23:04:10 10° NNW 23:09:53 78° WSW 23:12:10 38° SSE
Geosat 4.4 23:06:31 10° NNE 23:11:27 60° NW 23:15:09 18° SW
Cosmos-2242 4.1 23:10:18 23° WSW 23:12:12 36° WNW 23:16:03 10° N
Cosmos 2227 Rocket 4.0 23:11:04 15° ESE 23:12:16 16° E 23:15:29 10° ENE
NOSS 0 Rocket 3.9 23:06:16 10° NNW 23:12:29 89° ENE 23:15:27 33° SSE
Meteor 1-11 Rocket 3.8 23:07:44 10° N 23:13:25 70° ENE 23:15:45 36° SSE
Cosmos 468 Rocket 4.2 23:10:30 26° SW 23:13:28 70° WNW 23:18:44 10° NNE
Meteor 1-10 Rocket 4.5 23:17:23 36° SSE 23:19:43 63° E 23:25:35 10° NNE
MetOp-A 4.2 23:18:10 35° SE 23:20:02 58° ENE 23:24:37 10° N
Cosmos 2263 Rocket 4.3 23:20:54 10° ESE 23:22:18 11° E 23:24:00 10° ENE
Cosmos 1812 Rocket 3.5 23:25:18 52° S 23:26:19 76° E 23:30:45 10° NNE
Cosmos 1238 Rocket 3.9 23:25:54 29° ESE 23:26:33 31° E 23:30:23 10° NNE
Helios 1B rocket 3.7 23:29:08 22° WSW 23:29:25 23° W 23:32:16 10° NW
Cosmos 1470 3.4 23:28:21 10° NNW 23:31:23 34° W 23:31:24 34° W
USA 234 3.4 23:25:29 10° ENE 23:31:49 49° SE 23:34:29 33° SSW
SeaSat 1 3.6 23:28:37 15° ESE 23:32:19 38° NE 23:36:50 10° NNW
Cosmos 1536 4.5 23:30:17 10° NW 23:33:01 20° W 23:33:43 19° WSW
CZ-2C R/B 3.6 23:28:01 10° NNE 23:33:40 54° E 23:35:48 36° SSE
ACS3 Solar Sail 3.3 23:29:56 10° NE 23:34:34 23° E 23:37:20 17° ESE
Meteor 1-27 Rocket 4.1 23:32:34 35° SSE 23:34:44 54° E 23:40:20 10° NNE
Helios 1B 4.4 23:30:33 10° NNE 23:34:50 82° ESE 23:35:46 54° S
NOSS 8 (E) 4.4 23:32:53 10° NW 23:35:46 61° NE 23:35:46 61° NE
Cosmos 2221 2.6 23:35:23 46° SW 23:36:25 64° WNW 23:40:36 10° N
ATLAS 2AS CENTAUR R/B 4.3 23:30:22 10° NW 23:36:28 33° NNE 23:42:32 10° E
BlueWalker 3 4.3 23:41:17 12° E 23:41:17 12° E 23:41:37 10° E
CZ-2C R/B 4.2 23:36:08 10° N 23:40:28 52° WNW 23:42:14 32° SW
Cosmos 1898 Rocket 4.1 23:35:58 10° NW 23:40:50 42° WSW 23:42:14 35° SW
Cosmos 2279 Rocket 4.4 23:37:48 27° SW 23:41:12 58° WNW 23:47:23 10° N
Cosmos 2297 Rocket 2.3 23:43:29 40° S 23:45:19 59° ESE 23:50:52 10° NE
Meteor 2-20 4.4 23:46:32 37° S 23:49:08 83° E 23:55:14 10° NNE
ISS -1.4 23:46:32 10° W 23:47:15 15° W 23:47:15 15° W
Landsat 5 4.3 23:47:24 10° NNE 23:51:07 33° E 23:51:40 32° ESE
NOSS 8 (F) 4.3 23:48:58 10° NW 23:51:35 68° NNW 23:51:35 68° NNW
SAR-Lupe-2 4.2 23:53:11 38° W 23:53:11 38° W 23:56:09 10° NNW
Meteor 2-10 Rocket 4.2 23:48:51 10° N 23:54:17 55° ENE 23:57:07 28° SE
GP-B 3.1 23:50:36 10° N 23:54:58 72° W 23:56:01 50° SSW
